When you browse on this site, cookies collect data to enhance your experience and personalize the content and advertising you see.
Visit our Privacy Policy to learn more. By continuing to use the site, you agree to this use of cookies and data.
  • In Romania
  • List of Countries
  • For 7 days
  • Water Temperature
  • Satellite Maps
  • Weather Map
  • Weather Widgets
  • user-avatar
    Login

    Hourly Weather Edinburgh

    Today, 23 February, Saturday

    Time Temperature Precipitation Wind Pressure Humidity
    00:00 +10°C° 0 mm 4 mps 768 mmHg 72%
    01:00 +10°C° 0 mm 4 mps 767 mmHg 70%
    02:00 +10°C° 0 mm 4 mps 767 mmHg 69%
    03:00 +9°C° 0 mm 5 mps 767 mmHg 67%
    04:00 +9°C° 0 mm 5 mps 767 mmHg 67%
    05:00 +9°C° 0 mm 5 mps 766 mmHg 67%
    06:00 +8°C° 0 mm 4 mps 767 mmHg 71%
    07:00 +8°C° 0 mm 4 mps 767 mmHg 70%
    08:00 +9°C° 0 mm 5 mps 766 mmHg 70%
    09:00 +9°C° 0 mm 5 mps 766 mmHg 70%
    10:00 +10°C° 0 mm 6 mps 766 mmHg 68%
    11:00 +11°C° 0 mm 7 mps 767 mmHg 66%
    12:00 +13°C° 0 mm 6 mps 767 mmHg 62%
    13:00 +11°C° 0.3 mm 6 mps 767 mmHg 68%
    14:00 +11°C° 0.3 mm 6 mps 767 mmHg 74%
    15:00 +10°C° 0.3 mm 6 mps 767 mmHg 80%
    16:00 +10°C° 0 mm 6 mps 767 mmHg 84%
    17:00 +10°C° 0 mm 5 mps 768 mmHg 87%
    18:00 +10°C° 0 mm 4 mps 768 mmHg 91%
    19:00 +10°C° 0 mm 4 mps 769 mmHg 91%
    20:00 +8°C° 0 mm 4 mps 770 mmHg 92%
    21:00 +9°C° 0 mm 3 mps 770 mmHg 93%
    22:00 +8°C° 0 mm 3 mps 771 mmHg 93%
    23:00 +8°C° 0 mm 2 mps 771 mmHg 94%

    Tomorrow, 24 February, Sunday

    Time Temperature Precipitation Wind Pressure Humidity
    00:00 +8°C° 0 mm 1 mps 772 mmHg 94%
    01:00 +8°C° 0 mm 1 mps 772 mmHg 94%
    02:00 +7°C° 0 mm 1 mps 772 mmHg 94%
    03:00 +7°C° 0 mm 1 mps 772 mmHg 94%
    04:00 +7°C° 0 mm 1 mps 773 mmHg 94%
    05:00 +7°C° 0 mm 1 mps 773 mmHg 94%
    06:00 +6°C° 0 mm 1 mps 773 mmHg 94%
    07:00 +7°C° 0 mm 1 mps 773 mmHg 93%
    08:00 +6°C° 0 mm 2 mps 773 mmHg 92%
    09:00 +7°C° 0 mm 2 mps 773 mmHg 90%
    10:00 +8°C° 0 mm 2 mps 773 mmHg 84%
    11:00 +10°C° 0 mm 2 mps 773 mmHg 77%
    12:00 +12°C° 0 mm 3 mps 773 mmHg 71%
    13:00 +12°C° 0 mm 3 mps 772 mmHg 72%
    14:00 +13°C° 0 mm 3 mps 772 mmHg 72%
    15:00 +14°C° 0 mm 3 mps 772 mmHg 73%
    16:00 +13°C° 0 mm 3 mps 772 mmHg 78%
    17:00 +11°C° 0 mm 3 mps 772 mmHg 83%
    18:00 +10°C° 0 mm 2 mps 772 mmHg 88%
    19:00 +10°C° 0 mm 2 mps 772 mmHg 87%
    20:00 +9°C° 0 mm 2 mps 772 mmHg 85%
    21:00 +9°C° 0 mm 2 mps 772 mmHg 84%
    22:00 +9°C° 0 mm 2 mps 772 mmHg 85%
    23:00 +9°C° 0 mm 2 mps 772 mmHg 86%

    Day after tomorrow, 25 February, Monday

    Time Temperature Precipitation Wind Pressure Humidity
    00:00 +9°C° 0 mm 2 mps 772 mmHg 87%
    01:00 +8°C° 0 mm 2 mps 772 mmHg 88%
    02:00 +8°C° 0 mm 2 mps 772 mmHg 88%
    03:00 +8°C° 0 mm 2 mps 772 mmHg 89%
    04:00 +8°C° 0 mm 2 mps 772 mmHg 90%
    05:00 +8°C° 0 mm 2 mps 773 mmHg 91%
    06:00 +7°C° 0 mm 2 mps 773 mmHg 92%
    07:00 +8°C° 0 mm 2 mps 773 mmHg 90%
    08:00 +8°C° 0 mm 2 mps 773 mmHg 88%
    09:00 +9°C° 0 mm 2 mps 773 mmHg 85%
    10:00 +12°C° 0 mm 2 mps 773 mmHg 78%
    11:00 +13°C° 0 mm 2 mps 772 mmHg 71%
    12:00 +14°C° 0 mm 3 mps 772 mmHg 64%
    13:00 +14°C° 0 mm 3 mps 772 mmHg 63%
    14:00 +14°C° 0 mm 3 mps 772 mmHg 62%
    15:00 +16°C° 0 mm 3 mps 771 mmHg 60%
    16:00 +13°C° 0 mm 3 mps 771 mmHg 63%
    17:00 +11°C° 0 mm 3 mps 771 mmHg 66%
    18:00 +10°C° 0 mm 2 mps 771 mmHg 68%
    19:00 +9°C° 0 mm 3 mps 771 mmHg 66%
    20:00 +9°C° 0 mm 3 mps 771 mmHg 64%
    21:00 +8°C° 0 mm 3 mps 771 mmHg 61%
    22:00 +8°C° 0 mm 3 mps 771 mmHg 65%
    23:00 +8°C° 0 mm 3 mps 771 mmHg 69%

    26 February, Tuesday

    Time Temperature Precipitation Wind Pressure Humidity
    00:00 +8°C° 0 mm 3 mps 771 mmHg 73%
    01:00 +8°C° 0 mm 3 mps 771 mmHg 77%
    02:00 +7°C° 0 mm 3 mps 771 mmHg 81%
    03:00 +7°C° 0 mm 3 mps 771 mmHg 85%
    04:00 +7°C° 0 mm 2 mps 771 mmHg 88%
    05:00 +7°C° 0 mm 2 mps 772 mmHg 90%
    06:00 +6°C° 0 mm 2 mps 772 mmHg 92%
    07:00 +7°C° 0 mm 2 mps 772 mmHg 91%
    08:00 +7°C° 0 mm 2 mps 772 mmHg 89%
    09:00 +9°C° 0 mm 1 mps 773 mmHg 88%
    10:00 +9°C° 0 mm 2 mps 773 mmHg 83%
    11:00 +10°C° 0 mm 2 mps 773 mmHg 78%
    12:00 +13°C° 0 mm 2 mps 772 mmHg 73%
    13:00 +13°C° 0 mm 2 mps 772 mmHg 71%
    14:00 +14°C° 0 mm 2 mps 772 mmHg 69%
    15:00 +15°C° 0 mm 2 mps 771 mmHg 67%
    16:00 +13°C° 0 mm 2 mps 771 mmHg 73%
    17:00 +12°C° 0 mm 2 mps 771 mmHg 78%
    18:00 +9°C° 0 mm 2 mps 770 mmHg 84%
    19:00 +9°C° 0 mm 2 mps 770 mmHg 85%
    20:00 +9°C° 0 mm 1 mps 770 mmHg 86%
    21:00 +8°C° 0 mm 1 mps 770 mmHg 87%
    22:00 +8°C° 0 mm 1 mps 769 mmHg 88%
    23:00 +8°C° 0 mm 1 mps 769 mmHg 88%

    27 February, Wednesday

    Time Temperature Precipitation Wind Pressure Humidity
    00:00 +7°C° 0 mm 1 mps 768 mmHg 88%
    01:00 +7°C° 0 mm 1 mps 768 mmHg 89%
    02:00 +6°C° 0 mm 2 mps 767 mmHg 90%
    03:00 +6°C° 0 mm 2 mps 767 mmHg 90%
    04:00 +6°C° 0 mm 2 mps 766 mmHg 92%
    05:00 +6°C° 0 mm 2 mps 766 mmHg 93%
    06:00 +6°C° 0 mm 2 mps 765 mmHg 94%
    07:00 +7°C° 0 mm 3 mps 765 mmHg 93%
    08:00 +8°C° 0 mm 3 mps 765 mmHg 92%
    09:00 +8°C° 0 mm 3 mps 765 mmHg 92%
    10:00 +9°C° 0 mm 3 mps 765 mmHg 88%
    11:00 +10°C° 0 mm 3 mps 765 mmHg 84%
    12:00 +11°C° 0 mm 3 mps 765 mmHg 80%
    13:00 +11°C° 0 mm 3 mps 765 mmHg 79%
    14:00 +11°C° 0 mm 3 mps 764 mmHg 79%
    15:00 +11°C° 0 mm 3 mps 764 mmHg 78%
    16:00 +10°C° 0 mm 3 mps 764 mmHg 82%
    17:00 +9°C° 0 mm 2 mps 764 mmHg 86%
    18:00 +8°C° 0 mm 2 mps 764 mmHg 91%
    19:00 +8°C° 0 mm 2 mps 765 mmHg 92%
    20:00 +7°C° 0 mm 2 mps 765 mmHg 93%
    21:00 +7°C° 0 mm 3 mps 765 mmHg 94%
    22:00 +7°C° 0 mm 2 mps 765 mmHg 94%
    23:00 +6°C° 0 mm 2 mps 766 mmHg 94%

    28 February, Thursday

    Time Temperature Precipitation Wind Pressure Humidity
    00:00 +7°C° 0 mm 1 mps 766 mmHg 94%
    01:00 +6°C° 0 mm 2 mps 766 mmHg 95%
    02:00 +6°C° 0 mm 2 mps 766 mmHg 95%
    03:00 +6°C° 0 mm 2 mps 767 mmHg 95%
    04:00 +7°C° 0 mm 2 mps 767 mmHg 95%
    05:00 +7°C° 0 mm 3 mps 767 mmHg 96%
    06:00 +8°C° 0 mm 3 mps 767 mmHg 97%
    07:00 +8°C° 0 mm 3 mps 768 mmHg 95%
    08:00 +7°C° 0 mm 4 mps 768 mmHg 93%
    09:00 +8°C° 0 mm 4 mps 769 mmHg 91%
    10:00 +8°C° 0 mm 4 mps 769 mmHg 88%
    11:00 +10°C° 0 mm 4 mps 769 mmHg 84%
    12:00 +10°C° 0 mm 4 mps 770 mmHg 81%
    13:00 +10°C° 0 mm 4 mps 770 mmHg 83%
    14:00 +10°C° 0 mm 4 mps 770 mmHg 85%
    15:00 +10°C° 0 mm 3 mps 770 mmHg 87%
    16:00 +10°C° 0 mm 3 mps 770 mmHg 89%
    17:00 +9°C° 0 mm 3 mps 770 mmHg 90%
    18:00 +9°C° 0 mm 2 mps 770 mmHg 92%
    19:00 +9°C° 0 mm 2 mps 770 mmHg 93%
    20:00 +9°C° 0 mm 2 mps 770 mmHg 94%
    21:00 +9°C° 0 mm 2 mps 770 mmHg 95%
    22:00 +9°C° 0 mm 2 mps 770 mmHg 95%
    23:00 +9°C° 0 mm 1 mps 770 mmHg 96%
    Show more